Вернуться в каталог

CZ-6A DEB

АктивенSSO
NORAD 54526·DEBRIS·🇨🇳 China

Запущен Nov 11, 2022 с Taiyuan Satellite Launch Center

Loading…

Ближайшие Пролёты (ближайшие 24 часа)

TLE

СвежийSource: Space-Track

Эпоха: Sep 14, 2026, 10:53 UTC

1 54526U 22151KE  26257.45354501  .00000153  00000-0  10917-3 0  9992
2 54526  98.8473 254.6994 0055516 108.9100 251.8100 14.10164350197271

Отслеживайте CZ-6A DEB в реальном времени с AllMySat

Download on the App Store